Lid_Strength_Index
13 14 14 13 12 11 11 12 12 11 11 10 10 9 9 8 7 7 6 5 4 4 3 1 1 1 1 2 1 2 3 2
14 14 14 14 14 12 12 12 11 11 11 11 11 10 9 9 8 8 7 7 6 5 5 5 5 4 4 4 4 6 7 7
14 15 15 15 14 14 12 12 11 11 11 11 11 11 11 10 10 9 8 8 7 7 7 7 7 6 7 7 7 8 9 9
15 16 16 16 15 15 14 14 12 12 12 12 12 11 11 10 10 10 9 9 8 8 8 8 8 8 9 9 10 10 10 10
16 16 16 16 16 15 14 14 13 13 12 13 13 12 12 11 11 11 10 10 9 9 8 8 8 9 10 10 10 11 11 12
18 16 16 18 16 15 15 15 14 12 14 13 13 12 12 12 12 12 11 11 10 10 9 9 9 9 10 10 11 11 13 12
17 15 17 19 17 15 17 15 14 14 13 13 13 13 13 13 12 12 12 12 11 11 10 10 10 10 9 10 11 12 12 13
14 16 16 16 14 15 15 14 15 14 15 13 13 13 13 13 13 13 13 12 12 12 11 11 11 10 11 11 12 13 13 14
13 14 14 15 17 14 14 14 14 15 14 13 13 14 14 13 14 14 13 13 13 13 13 12 12 10 11 12 13 13 14 14
13 14 14 15 15 14 15 15 15 15 14 14 15 15 15 15 16 16 15 14 14 14 15 13 13 11 11 13 14 15 15 14
13 14 15 15 14 15 15 15 16 15 15 15 15 15 16 16 16 15 15 15 15 15 15 15 14 12 12 13 14 15 14 14
14 15 15 15 14 15 16 16 15 16 16 16 15 15 15 15 16 15 16 16 17 16 16 15 14 13 11 11 13 14 14 14
15 15 15 15 15 15 16 16 17 17 18 18 17 15 15 17 17 17 17 17 18 18 17 16 15 12 11 11 12 12 14 15
15 16 19 18 17 17 17 18 19 20 20 20 19 17 16 17 18 18 19 19 19 18 19 18 17 16 11 11 12 12 15 15
17 18 17 19 18 17 19 19 20 20 20 20 19 19 19 16 16 18 19 19 18 19 20 21 20 19 18 16 15 14 15 14
16 15 16 18 18 19 20 20 20 20 20 20 19 18 19 18 18 17 18 18 20 22 20 22 23 20 17 18 20 20 18 23
15 15 15 18 17 19 20 19 19 19 19 19 19 20 19 19 21 14 14 13 12 13 17 19 16 13 13 14 14 14 14 26
14 14 14 16 17 18 19 19 19 18 18 19 19 19 19 22 20 18 15 13 13 12 12 13 14 12 13 13 13 12 15 28
15 15 14 15 15 17 18 19 18 18 20 18 18 19 21 21 20 24 22 20 19 16 14 13 13 13 13 13 14 18 22 30
15 15 15 16 14 17 17 18 17 18 17 18 18 18 18 19 21 22 24 25 28 29 18 17 13 13 13 13 21 23 26 28